Flag Weather past 2 weeks in El Aaiún, Western Sahara

Now
77 °F

Scattered clouds.


Feels Like: 79 °F
Forecast: N/A
Wind: 14 mph from North

Location: Laayoune/Hassan Isl

Current Time: Oct 31, 2014 at 6:10:39 PM

Latest Report: Oct 31, 2014 at 5:00 PM


Visibility: N/A

Pressure: 29.98 "Hg

Humidity: 65%

Dew point: 64 °F

Location of El AaiúnLocation

Historic Weather in El Aaiún — Graph

°F

El Aaiún temperature yesterday

Maximum temperature yesterday: 79 °F (at 12:00 PM)
Minimum temperature yesterday: 64 °F (at 6:00 AM)
Average temperature yesterday: 70 °F

Past Weeks' High & Low Weather Summary

 TemperatureHumidityPressure
High100 °F (Oct 26, 2:00 PM)100% (Oct 17, 8:03 AM)30.12 "Hg (Oct 17, 8:03 AM)
Low63 °F (Oct 17, 8:03 AM)10% (Oct 22, 2:00 PM)29.80 "Hg (Oct 29, 4:37 AM)
Average74 °F70%29.96 "Hg
* Reported Oct 16 6:00 PM — Oct 31 5:00 PM, El Aaiún, Weather by CustomWeather, © 2014

Note: Actual official high and low records may vary slightly from our data, if they occured in-between our weather recording intervals... More about our weather records

Advertising

El Aaiún weather history for previous 24 hours

 ConditionsComfort  
Time TempWeatherWind HumidityBarometerVisibility
5:00 PM
Oct 31
77 °FScattered clouds.14 mph65%29.98 "HgN/A
4:00 PM77 °FScattered clouds.14 mph65%29.95 "HgN/A
3:00 PM79 °FScattered clouds.18 mph61%29.98 "HgN/A
2:00 PM79 °FScattered clouds.14 mph61%29.98 "HgN/A
1:00 PM79 °FPartly sunny.12 mph65%30.01 "HgN/A
12:00 PM79 °FPartly sunny.7 mph65%30.01 "HgN/A
11:00 AM77 °FPartly sunny.12 mph65%30.04 "HgN/A
10:00 AM73 °FBroken clouds.9 mph83%30.04 "Hg5 mi
9:30 AM70 °FPartly sunny.9 mph94%30.04 "Hg4 mi
9:00 AM68 °FFog.3 mph100%30.04 "Hg2 mi
8:00 AM68 °FFog.5 mph100%30.01 "Hg0 mi
7:00 AM66 °FFog.5 mph100%29.98 "Hg0 mi
6:00 AM66 °FFog.5 mph100%29.98 "Hg1 mi
5:00 AM64 °FFog.1 mph100%29.98 "HgN/A
4:00 AM64 °FFog.5 mph100%29.98 "Hg1 mi
3:00 AM66 °FClear.8 mph100%29.98 "Hg10 mi
2:00 AM66 °FClear.6 mph94%29.98 "Hg10 mi
1:00 AM66 °FClear.5 mph94%30.01 "Hg10 mi
12:00 AM66 °FClear.6 mph94%30.01 "Hg10 mi
11:00 PM
Oct 30
68 °FClear.7 mph88%30.01 "Hg10 mi
10:00 PM68 °FClear.6 mph88%30.01 "Hg10 mi
9:00 PM68 °FClear.7 mph88%30.01 "Hg10 mi
8:00 PM70 °FClear.9 mph83%29.98 "Hg10 mi
7:00 PM72 °FPassing clouds.12 mph78%29.95 "HgN/A
6:00 PM73 °FPassing clouds.14 mph74%29.92 "HgN/A
Weather by CustomWeather, © 2014

See weather overviewHow to use our weather pages